• In Uzbekistan
  • List of Countries
  • For 7 days
  • Water Temperature
  • Satellite Maps
  • Weather Map
  • Weather Widgets
  • user-avatar
    Login

    Hourly Weather Manika

    Today, 23 January, Tuesday

    Time Temperature Precipitation Wind Pressure Humidity
    00:00 +20°C° 0 mm 1 mps 677 mmHg 86%
    01:00 +19°C° 0 mm 1 mps 677 mmHg 89%
    02:00 +19°C° 0 mm 1 mps 677 mmHg 91%
    03:00 +19°C° 0 mm 1 mps 677 mmHg 92%
    04:00 +18°C° 0 mm 1 mps 677 mmHg 93%
    05:00 +18°C° 0 mm 1 mps 677 mmHg 94%
    06:00 +21°C° 0 mm 1 mps 678 mmHg 82%
    07:00 +23°C° 0 mm 1 mps 678 mmHg 71%
    08:00 +24°C° 0 mm 0 mps 679 mmHg 59%
    09:00 +29°C° 0 mm 1 mps 679 mmHg 50%
    10:00 +31°C° 0 mm 1 mps 679 mmHg 40%
    11:00 +34°C° 0 mm 1 mps 680 mmHg 31%
    12:00 +35°C° 0 mm 1 mps 679 mmHg 30%
    13:00 +35°C° 0 mm 1 mps 678 mmHg 28%
    14:00 +35°C° 0 mm 1 mps 678 mmHg 27%
    15:00 +34°C° 0 mm 1 mps 677 mmHg 30%
    16:00 +32°C° 0 mm 2 mps 676 mmHg 34%
    17:00 +31°C° 0 mm 2 mps 676 mmHg 37%
    18:00 +29°C° 0 mm 2 mps 676 mmHg 46%
    19:00 +26°C° 0 mm 2 mps 676 mmHg 55%
    20:00 +24°C° 0 mm 2 mps 676 mmHg 64%
    21:00 +23°C° 0 mm 2 mps 676 mmHg 70%
    22:00 +22°C° 0 mm 1 mps 676 mmHg 77%
    23:00 +21°C° 0 mm 1 mps 677 mmHg 83%

    Tomorrow, 24 January, Wednesday

    Time Temperature Precipitation Wind Pressure Humidity
    00:00 +21°C° 0 mm 1 mps 676 mmHg 85%
    01:00 +20°C° 0 mm 1 mps 676 mmHg 87%
    02:00 +20°C° 0 mm 1 mps 676 mmHg 89%
    03:00 +20°C° 0 mm 1 mps 676 mmHg 89%
    04:00 +20°C° 0 mm 1 mps 676 mmHg 89%
    05:00 +19°C° 0 mm 1 mps 676 mmHg 89%
    06:00 +22°C° 0 mm 1 mps 677 mmHg 77%
    07:00 +25°C° 0 mm 1 mps 677 mmHg 65%
    08:00 +28°C° 0 mm 1 mps 678 mmHg 52%
    09:00 +30°C° 0 mm 1 mps 678 mmHg 45%
    10:00 +32°C° 0 mm 1 mps 678 mmHg 38%
    11:00 +35°C° 0 mm 2 mps 678 mmHg 30%
    12:00 +36°C° 0 mm 2 mps 678 mmHg 29%
    13:00 +36°C° 0 mm 2 mps 677 mmHg 27%
    14:00 +36°C° 0 mm 2 mps 677 mmHg 26%
    15:00 +35°C° 0 mm 2 mps 676 mmHg 30%
    16:00 +34°C° 0 mm 2 mps 676 mmHg 34%
    17:00 +32°C° 0 mm 2 mps 675 mmHg 38%
    18:00 +29°C° 0 mm 2 mps 675 mmHg 48%
    19:00 +27°C° 0 mm 2 mps 676 mmHg 58%
    20:00 +25°C° 0 mm 2 mps 676 mmHg 69%
    21:00 +24°C° 0 mm 2 mps 676 mmHg 72%
    22:00 +23°C° 0 mm 2 mps 676 mmHg 76%
    23:00 +22°C° 0 mm 1 mps 677 mmHg 80%

    Day after tomorrow, 25 January, Thursday

    Time Temperature Precipitation Wind Pressure Humidity
    00:00 +22°C° 0 mm 1 mps 676 mmHg 82%
    01:00 +21°C° 0 mm 1 mps 676 mmHg 83%
    02:00 +21°C° 0 mm 1 mps 676 mmHg 85%
    03:00 +21°C° 0 mm 1 mps 676 mmHg 85%
    04:00 +21°C° 0 mm 1 mps 676 mmHg 86%
    05:00 +20°C° 0 mm 1 mps 676 mmHg 86%
    06:00 +23°C° 0 mm 1 mps 677 mmHg 76%
    07:00 +26°C° 0 mm 1 mps 677 mmHg 65%
    08:00 +28°C° 0 mm 1 mps 678 mmHg 55%
    09:00 +31°C° 0 mm 1 mps 679 mmHg 47%
    10:00 +33°C° 0 mm 1 mps 679 mmHg 39%
    11:00 +36°C° 0 mm 1 mps 679 mmHg 31%
    12:00 +35°C° 0 mm 2 mps 678 mmHg 34%
    13:00 +34°C° 0 mm 2 mps 677 mmHg 36%
    14:00 +33°C° 0 mm 3 mps 677 mmHg 38%
    15:00 +31°C° 0 mm 3 mps 676 mmHg 41%
    16:00 +30°C° 0 mm 3 mps 676 mmHg 44%
    17:00 +30°C° 0 mm 3 mps 676 mmHg 46%
    18:00 +28°C° 0.1 mm 2 mps 676 mmHg 54%
    19:00 +26°C° 0.1 mm 2 mps 676 mmHg 61%
    20:00 +24°C° 0.1 mm 2 mps 677 mmHg 68%
    21:00 +23°C° 0 mm 1 mps 677 mmHg 72%
    22:00 +22°C° 0 mm 1 mps 677 mmHg 77%
    23:00 +22°C° 0 mm 1 mps 677 mmHg 81%

    26 January, Friday

    Time Temperature Precipitation Wind Pressure Humidity
    00:00 +21°C° 0 mm 1 mps 677 mmHg 84%
    01:00 +20°C° 0 mm 1 mps 677 mmHg 87%
    02:00 +20°C° 0 mm 1 mps 676 mmHg 90%
    03:00 +19°C° 0 mm 1 mps 676 mmHg 91%
    04:00 +19°C° 0 mm 1 mps 676 mmHg 92%
    05:00 +19°C° 0 mm 1 mps 676 mmHg 93%
    06:00 +21°C° 0 mm 1 mps 677 mmHg 84%
    07:00 +23°C° 0 mm 1 mps 678 mmHg 74%
    08:00 +25°C° 0 mm 1 mps 679 mmHg 64%
    09:00 +27°C° 0 mm 1 mps 679 mmHg 54%
    10:00 +30°C° 0 mm 2 mps 680 mmHg 43%
    11:00 +32°C° 0 mm 2 mps 680 mmHg 33%
    12:00 +34°C° 0 mm 2 mps 679 mmHg 30%
    13:00 +35°C° 0 mm 3 mps 678 mmHg 27%
    14:00 +35°C° 0 mm 3 mps 678 mmHg 25%
    15:00 +35°C° 0 mm 3 mps 677 mmHg 28%
    16:00 +34°C° 0 mm 4 mps 677 mmHg 31%
    17:00 +33°C° 0 mm 4 mps 677 mmHg 34%
    18:00 +29°C° 0 mm 3 mps 677 mmHg 47%
    19:00 +26°C° 0 mm 3 mps 677 mmHg 60%
    20:00 +24°C° 0 mm 2 mps 677 mmHg 73%
    21:00 +23°C° 0.1 mm 2 mps 678 mmHg 78%
    22:00 +21°C° 0.1 mm 2 mps 678 mmHg 83%
    23:00 +21°C° 0.1 mm 1 mps 678 mmHg 89%

    27 January, Saturday

    Time Temperature Precipitation Wind Pressure Humidity
    00:00 +21°C° 0 mm 1 mps 678 mmHg 90%
    01:00 +21°C° 0 mm 1 mps 677 mmHg 92%
    02:00 +20°C° 0 mm 1 mps 676 mmHg 94%
    03:00 +20°C° 0 mm 1 mps 676 mmHg 94%
    04:00 +20°C° 0 mm 1 mps 677 mmHg 94%
    05:00 +20°C° 0 mm 1 mps 677 mmHg 95%
    06:00 +21°C° 0 mm 1 mps 677 mmHg 86%
    07:00 +23°C° 0 mm 1 mps 678 mmHg 77%
    08:00 +25°C° 0 mm 1 mps 679 mmHg 68%
    09:00 +28°C° 0 mm 1 mps 679 mmHg 58%
    10:00 +30°C° 0 mm 1 mps 679 mmHg 47%
    11:00 +33°C° 0 mm 1 mps 680 mmHg 36%
    12:00 +34°C° 0 mm 2 mps 679 mmHg 34%
    13:00 +35°C° 0 mm 2 mps 678 mmHg 32%
    14:00 +35°C° 0 mm 2 mps 677 mmHg 29%
    15:00 +35°C° 0 mm 2 mps 677 mmHg 30%
    16:00 +34°C° 0 mm 2 mps 677 mmHg 32%
    17:00 +33°C° 0 mm 3 mps 676 mmHg 33%
    18:00 +30°C° 0 mm 2 mps 676 mmHg 42%
    19:00 +27°C° 0 mm 2 mps 676 mmHg 50%
    20:00 +24°C° 0 mm 2 mps 676 mmHg 59%
    21:00 +23°C° 0 mm 2 mps 676 mmHg 64%
    22:00 +22°C° 0 mm 1 mps 676 mmHg 70%
    23:00 +21°C° 0 mm 1 mps 676 mmHg 75%

    28 January, Sunday

    Time Temperature Precipitation Wind Pressure Humidity
    00:00 +21°C° 0 mm 1 mps 676 mmHg 79%
    01:00 +20°C° 0 mm 1 mps 676 mmHg 83%
    02:00 +20°C° 0 mm 1 mps 675 mmHg 87%
    03:00 +19°C° 0 mm 1 mps 675 mmHg 88%
    04:00 +19°C° 0 mm 1 mps 676 mmHg 89%
    05:00 +19°C° 0 mm 1 mps 676 mmHg 90%
    06:00 +20°C° 0 mm 0 mps 677 mmHg 78%
    07:00 +23°C° 0 mm 0 mps 677 mmHg 66%
    08:00 +26°C° 0 mm 0 mps 678 mmHg 54%
    09:00 +30°C° 0 mm 1 mps 678 mmHg 46%
    10:00 +32°C° 0 mm 1 mps 678 mmHg 37%
    11:00 +35°C° 0 mm 2 mps 678 mmHg 28%
    12:00 +36°C° 0 mm 2 mps 678 mmHg 26%
    13:00 +36°C° 0 mm 2 mps 677 mmHg 24%
    14:00 +37°C° 0 mm 3 mps 676 mmHg 22%
    15:00 +36°C° 0 mm 3 mps 676 mmHg 24%
    16:00 +35°C° 0 mm 3 mps 676 mmHg 27%
    17:00 +34°C° 0 mm 4 mps 675 mmHg 29%
    18:00 +30°C° 0 mm 3 mps 676 mmHg 38%
    19:00 +28°C° 0 mm 2 mps 676 mmHg 47%
    20:00 +25°C° 0 mm 2 mps 676 mmHg 56%
    21:00 +24°C° 0 mm 2 mps 676 mmHg 61%
    22:00 +23°C° 0 mm 2 mps 677 mmHg 66%
    23:00 +22°C° 0 mm 1 mps 677 mmHg 71%
    Show more